Regional Weather Roundup
Issued by NWS

Home | Current Version | Previous Version | Graphics & Text | Print | Product List | Glossary On
Versions: 1 2 3 4 5 6 7 8 9 10 11 12 13 14 15 16 17 18 19 20 21 22 23 24 25 26 27 28 29 30 31 32 33 34 35 36 37 38 39 40 41 42 43 44 45 46 47 48 49 50
000
ASUS43 KDTX 150610
RWRMI
MICHIGAN HOURLY REGIONAL WEATHER ROUNDUP
NATIONAL WEATHER SERVICE DETROIT/PONTIAC MI
200 AM EDT MON SEP 15 2014

NOTE: "FAIR" INDICATES FEW OR NO CLOUDS BELOW 12,000 FEET WITH NO
SIGNIFICANT WEATHER AND/OR OBSTRUCTION TO VISIBILITY.

MIZ047>049-052>055-059>063-066>070-074>076-081>083-150700-
SOUTHEAST LOWER MICHIGAN

CITY           SKY/WX    TMP DP  RH WIND       PRES   REMARKS
ADRIAN         CLEAR     45  44  97 CALM      30.22S
6HR MIN TEMP:  45; 6HR MAX TEMP:  59;

ALMA           CLEAR     44  42  94 S5        30.17F
ANN ARBOR      FOG       40  39  97 CALM      30.21S VSB 3/4
BAD AXE        CLEAR     43  42  99 S6        30.18S
6HR MIN TEMP:  43; 6HR MAX TEMP:  54;

CARO           CLEAR     42  42  99 CALM      30.18S
DETROIT CITY   CLEAR     52  44  74 CALM      30.22S
6HR MIN TEMP:  50; 6HR MAX TEMP:  59;

DETROIT        PTCLDY    51  46  83 CALM      30.22S
6HR MIN TEMP:  50; 6HR MAX TEMP:  58;

FLINT          CLEAR     45  42  89 CALM      30.21S
6HR MIN TEMP:  44; 6HR MAX TEMP:  58;

GROSSE ILE     CLEAR     54  48  82 W3        30.20S
HILLSDALE      CLEAR     44  44 100 CALM      30.20S
6HR MIN TEMP:  43; 6HR MAX TEMP:  54;

HOWELL         CLEAR     44  43  97 CALM      30.20S
6HR MIN TEMP:  43; 6HR MAX TEMP:  56;


CITY           SKY/WX    TMP DP  RH WIND       PRES   REMARKS
JACKSON        CLEAR     44  41  89 CALM      30.21S
6HR MIN TEMP:  44; 6HR MAX TEMP:  57;

LAMBERTVILLE   CLEAR     46  45  93 CALM      30.22S
LANSING        CLEAR     46  43  89 S3        30.19F
6HR MIN TEMP:  46; 6HR MAX TEMP:  56;

LAPEER         FAIR      41  40  97 CALM      30.20S
MASON          CLEAR     44  43  97 CALM      30.21R
MONROE         CLEAR     46  46 100 CALM      30.20S
MT. CLEMENS    CLEAR     47  42  84 W1        30.20S
6HR MIN TEMP:  46; 6HR MAX TEMP:  56;

PONTIAC        CLEAR     46  42  86 CALM      30.20S
6HR MIN TEMP:  46; 6HR MAX TEMP:  57;

PORT HOPE        N/A     49  43  80 VRB3      30.16R
6HR MIN TEMP:  49; 6HR MAX TEMP:  55;

PORT HURON     FOG       43  43 100 CALM      30.21S VSB 1/2
TRI CITIES     CLEAR     48  44  86 S5        30.18S
6HR MIN TEMP:  48; 6HR MAX TEMP:  57;

TROY           CLEAR     51  45  81 CALM      30.22S
SAGINAW HB     CLEAR     45  45 100 S5        30.17F
$$
MIZ043>046-050>051-056>058-064>065-071>073-077>080-150700-
SOUTHWEST LOWER MICHIGAN

CITY           SKY/WX    TMP DP  RH WIND       PRES   REMARKS
BATTLE CREEK   CLEAR     47  43  86 CALM      30.20S
6HR MIN TEMP:  46; 6HR MAX TEMP:  56;

BENTON HARBOR  CLEAR     45  44  97 CALM      30.19S
6HR MIN TEMP:  44; 6HR MAX TEMP:  57;

BIG RAPIDS     PTCLDY    44  44 100 CALM      30.15S
6HR MIN TEMP:  42; 6HR MAX TEMP:  51;

COLDWATER      CLEAR     45  44  97 CALM      30.20S
6HR MIN TEMP:  45; 6HR MAX TEMP:  57;

FREMONT        FAIR      47  45  93 S3        30.16S
6HR MIN TEMP:  45; 6HR MAX TEMP:  51;

HOLLAND        CLEAR     49  45  86 S5        30.18F
6HR MIN TEMP:  47; 6HR MAX TEMP:  57;

GRAND RAPIDS   CLEAR     48  44  86 S8        30.18F
6HR MIN TEMP:  46; 6HR MAX TEMP:  56;

IONIA          FAIR      44  43  95 S3        30.17S
KALAMAZOO      CLEAR     45  43  93 CALM      30.20S
6HR MIN TEMP:  45; 6HR MAX TEMP:  57;

LUDINGTON      LGT RAIN  57  54  88 W6        30.14R
6HR MIN TEMP:  53; 6HR MAX TEMP:  59; 6HR PCP:  0.02;

MARSHALL       CLEAR     41  41  97 CALM      30.20S FOG
MOUNT PLEASANT CLEAR     46  43  92 CALM      30.16S
6HR MIN TEMP:  43; 6HR MAX TEMP:  54;

MUSKEGON       CLEAR     50  45  83 CALM      30.17S
6HR MIN TEMP:  49; 6HR MAX TEMP:  55;

SOUTH HAVEN    CLEAR     50  47  91 CALM      30.19S
$$
MIZ016>042-150700-
NORTHERN LOWER MICHIGAN

CITY           SKY/WX    TMP DP  RH WIND       PRES   REMARKS
ALPENA         CLOUDY    48  44  86 SW6       30.11S
6HR MIN TEMP:  47; 6HR MAX TEMP:  52;

BEAVER ISLAND  PTCLDY    56  52  85 NW6       30.07R
6HR MIN TEMP:  55; 6HR MAX TEMP:  59;

BELLAIRE       CLOUDY    53  48  83 S3        30.10S
6HR MIN TEMP:  49; 6HR MAX TEMP:  57;

CADILLAC       MOCLDY    46  45  95 SW7       30.13S
CHARLEVOIX     MOCLDY    57  51  80 SW8G16    30.10S
6HR MIN TEMP:  55; 6HR MAX TEMP:  57;

FRANKFORT      CLOUDY    62  51  66 W10G20    30.10S
GAYLORD        CLOUDY    48  44  86 SW12      30.10S
6HR MIN TEMP:  48; 6HR MAX TEMP:  51;

GRAYLING       MOCLDY   N/A N/A N/A SW8       30.12F
HARBOR SPRINGS CLOUDY    55  48  77 S8        30.07F
HOUGHTON LAKE  PTCLDY    48  44  86 SW6       30.14F
6HR MIN TEMP:  48; 6HR MAX TEMP:  54;

MANISTEE       CLOUDY    54  48  82 CALM      30.14R
OSCODA         CLEAR     47  44  91 SW8       30.13F
PELLSTON       MOCLDY    54  49  83 SW8       30.07S
6HR MIN TEMP:  48; 6HR MAX TEMP:  55;

ROGERS CITY    MOCLDY    49  46  87 SW5       30.10R
TRAVERSE CITY  MOCLDY    55  47  74 VRB7      30.09S
6HR MIN TEMP:  54; 6HR MAX TEMP:  56;

$$
MIZ007>008-015-150700-
EASTERN UPPER MICHIGAN

CITY           SKY/WX    TMP DP  RH WIND       PRES   REMARKS
KINROSS        MOCLDY    52  50  93 S3        30.05R
6HR MIN TEMP:  50; 6HR MAX TEMP:  54;

MACKINAC ISLAN HVY RAIN  54  52  94 W10G23    30.06R
6HR MIN TEMP:  52; 6HR MAX TEMP:  56; 6HR PCP:  0.10;

NEWBERRY       CLEAR     45  44  97 W6        30.04S
6HR MIN TEMP:  44; 6HR MAX TEMP:  53;

S. S. MARIE    PTCLDY    48  46  93 S5        30.04R
6HR MIN TEMP:  48; 6HR MAX TEMP:  54; 6HR PCP: TRACE;

MUNISING         N/A     48  42  80 SW8       30.05S
6HR MIN TEMP:  48; 6HR MAX TEMP:  57;

$$
MIZ004>006-011>014-085-150700-
CENTRAL UPPER MICHIGAN

CITY           SKY/WX    TMP DP  RH WIND       PRES   REMARKS
MANISTIQUE     CLEAR     45  45  99 W3        30.06S
ESCANABA       PTCLDY    46  43  87 W3        30.08S
6HR MIN TEMP:  46; 6HR MAX TEMP:  59;

MENOMINEE      MOCLDY    52  45  76 W3        30.10R
6HR MIN TEMP:  50; 6HR MAX TEMP:  57;

SAWYER-GWINN   CLEAR     44  40  88 W5        30.06S
$$
MIZ001>003-009>011-084-150700-
WESTERN UPPER MICHIGAN

CITY           SKY/WX    TMP DP  RH WIND       PRES   REMARKS
IRON MOUNTAIN  PTCLDY    40  38  93 CALM      30.08S FOG
6HR MIN TEMP:  40; 6HR MAX TEMP:  57;

HOUGHTON       CLEAR     46  42  86 W8        30.04S
6HR MIN TEMP:  46; 6HR MAX TEMP:  52;

COPPER HARBOR    N/A     50  43  77 NW8       30.03R
6HR MIN TEMP:  50; 6HR MAX TEMP:  55;

IRONWOOD       CLEAR     43  41  93 W3        30.08S
6HR MIN TEMP:  41; 6HR MAX TEMP:  52;

$$

ABBREVIATIONS USED IN REMARKS
   TC - TEMPERATURE IN CELSIUS
  WCI - WIND CHILL INDEX
   HX - HEAT INDEX
  VSB - VISIBILITY



USA.gov is the U.S. government's official web portal to all federal, state and local government web resources and services.